Hourly Data Report for February 06, 2003

SHERBROOKE A
QUEBEC

45°26'00.000" N
71°41'00.000" W
241.40 m
7028124
71610
YSC

Download Data

Hourly Data (February 2003)
Hourly Data Report for February 6, 2003
TIME
LST
Temp Definition
°C
Dew Point Definition
°C
Rel Hum Definition
%
Precip. Amount Definition
mm

Wind Dir Definition
10's deg

Wind Spd Definition
km/h
Visibility Definition
km
Stn Press Definition
kPa
Hmdx Definition


Wind Chill Definition


Weather Definition


00:00 -15.8 -24.0 49   26 19 15.0 98.91   -25  
01:00 -16.3 -24.1 51   26 17 15.0 98.98   -25  
02:00 -17.1 -24.5 53   25 11 15.0 99.04   -24  
03:00 -17.9 -24.9 54   23 7 15.0 99.07   -23  
04:00 -18.3 -25.0 56   22 9 15.0 99.13   -25  
05:00 -19.1 -25.5 57   20 9 15.0 99.22   -26  
06:00 -18.9 -25.6 55   21 9 15.0 99.26   -25  
07:00 -20.5 -26.6 58   23 6 15.0 99.32   -26  
08:00 -20.0 -26.1 58   25 4 24.1 99.38   -23 Mostly Cloudy
09:00 -15.8 -23.2 53   22 13 24.1 99.39   -23 Mostly Cloudy
10:00 -13.5 -22.2 48   24 13 24.1 99.39   -20 Mostly Cloudy
11:00 -12.2 -21.4 46   23 15 24.1 99.39   -19 Mainly Clear
12:00 -11.1 -19.1 52   24 22 24.1 99.33   -20 Mostly Cloudy
13:00 -9.8 -18.1 51   25 19 24.1 99.25   -17 Mainly Clear
14:00 -9.5 -17.1 54   23 15 24.1 99.19   -16 Mainly Clear
15:00 -9.3 -15.2 62   23 15 19.3 99.19   -16 Snow
16:00 -8.8 -14.3 64   24 7 19.3 99.18   -13 Snow
17:00 -9.1 -13.2 72   24 4 3.2 99.21   -11 Snow
18:00 -9.1 -12.3 78   24 4 8.0 99.21   -11 Snow
19:00 -9.2 -12.4 78   17 4 12.9 99.20   -11 Snow
20:00 -9.2 -12.2 79   18 4 3.5 99.17   -11 Snow
21:00 -9.2 -12.2 79   15 4 2.1 99.15   -11 Snow
22:00 -10.1 -12.9 80   8 4 5.6 99.07   -12 Snow
23:00 -11.2 -13.7 82   8 4 12.9 99.03   -14  

Notes on Data Quality.

Legend

  • E = Estimated
  • M = Missing
  • NA = Not Available*
  • [empty] = Indicates an unobserved value
Date modified: